Regional Weather Roundup
Issued by NWS

Home | Current Version | Previous Version | Graphics & Text | Print | Product List | Glossary On
Versions: 1 2 3 4 5 6 7 8 9 10 11 12 13 14 15 16 17 18 19 20 21 22 23 24 25 26 27 28 29 30 31 32 33 34 35 36 37 38 39 40 41 42 43 44 45 46 47 48 49 50
000
ASUS43 KMKX 221200
RWRWI

WISCONSIN REGIONAL WEATHER ROUNDUP
NATIONAL WEATHER SERVICE MILWAUKEE/SULLIVAN WI
700 AM CDT MON MAY 22 2017

NOTE: "FAIR" INDICATES FEW OR NO CLOUDS BELOW 12,000 FEET WITH NO
SIGNIFICANT WEATHER AND/OR OBSTRUCTIONS TO VISIBILITY.

WIZ001-002-006>008-014>016-023>028-221300-
NORTHWEST WISCONSIN

CITY           SKY/WX    TMP DP  RH WIND       PRES   REMARKS
SUPERIOR ARPT  NOT AVBL
ASHLAND        CLOUDY    47  43  86 SW12      29.78S
6HR MIN TEMP:  46; 6HR MAX TEMP:  47;

HAYWARD        CLOUDY    45  43  93 SW9       29.81R
6HR MIN TEMP:  45; 6HR MAX TEMP:  46; 6HR PCP:  0.01;

SIREN          MOSUNNY   43  42  96 SW5       29.83S
CUMBERLAND     MOSUNNY   41  41 100 W5        29.84S
RICE LAKE      SUNNY     44  42  93 SW6       29.86S
6HR MIN TEMP:  44; 6HR MAX TEMP:  45; 6HR PCP:  0.02;

CHETEK         SUNNY     43  42  98 SW3       29.85S
LADYSMITH      CLOUDY    45  44  96 SW7       29.85S
EAU CLAIRE     NOT AVBL
MENOMONIE      SUNNY     46  43  90 SW6       29.87S
6HR MIN TEMP:  43; 6HR MAX TEMP:  46; 6HR PCP:  0.01;

NEW RICHMOND   SUNNY     43  42  97 SW6       29.86S
OSCEOLA        SUNNY     45  45 100 SW5       29.88S
$$

WIZ003>005-009-010-017-018-221300-
NORTH CENTRAL WISCONSIN

CITY           SKY/WX    TMP DP  RH WIND       PRES   REMARKS
MANITOWISH WTR CLOUDY    43  43 100 W9        29.78S
ARBOR VITAE    DRIZZLE   44  42  94 W7        29.79R
WOODRUFF       DRIZZLE   44  42  94 W7        29.79R
RHINELANDER    CLOUDY    45  42  89 W9        29.81R
6HR MIN TEMP:  45; 6HR MAX TEMP:  47; 6HR PCP:  0.01;

EAGLE RIVER    DRIZZLE   44  44 100 W10       29.79R
LAND O LAKES   CLOUDY    45  43  93 W7        29.79S
6HR MIN TEMP:  44; 6HR MAX TEMP:  47;

PHILLIPS       DRIZZLE   42  42 100 SW8       29.81S
6HR MIN TEMP:  42; 6HR MAX TEMP:  45; 6HR PCP:  0.03;

TOMAHAWK       CLOUDY    42  40  92 W6        29.83R
MEDFORD        CLOUDY    42  41  93 W7        29.85R
MERRILL        CLOUDY    44  43  97 W8        29.85S
6HR MIN TEMP:  43; 6HR MAX TEMP:  46; 6HR PCP:  0.03;

$$

WIZ029-030-035-036-043>047-221300-
CENTRAL WISCONSIN

CITY           SKY/WX    TMP DP  RH WIND       PRES   REMARKS
WAUSAU         CLOUDY    44  42  93 W12       29.85R
6HR MIN TEMP:  43; 6HR MAX TEMP:  45; 6HR PCP:  0.03;

MOSINEE        CLOUDY    45  45 100 W9G18     29.88R
MARSHFIELD     PTSUNNY   44  41  89 W7        29.87R
6HR MIN TEMP:  43; 6HR MAX TEMP:  44; 6HR PCP: TRACE;

STEVENS POINT  CLOUDY    43  40  88 W12G17    29.88S
WAUPACA        CLOUDY    49  41  74 W12G17    29.89S
6HR MIN TEMP:  48; 6HR MAX TEMP:  49;

WAUTOMA        SUNNY     47  41  80 W12G17    29.92R
6HR MIN TEMP:  45; 6HR MAX TEMP:  48;

WISC RAPIDS    SUNNY     46  41  82 W9        29.91R
6HR MIN TEMP:  44; 6HR MAX TEMP:  46; 6HR PCP:  0.01;

CAMP DOUGLAS   NOT AVBL
$$

WIZ011>013-019>022-031-037>040-048>050-221300-
NORTHEAST WISCONSIN

CITY           SKY/WX    TMP DP  RH WIND       PRES   REMARKS
ANTIGO         CLOUDY    42  41  97 W10       29.83S
SHAWANO        DRIZZLE   48  42  81 W9G16     29.86R
OCONTO         CLOUDY    47  41  80 W13G21    29.84R
STURGEON BAY   CLOUDY    48  42  80 W15G22    29.84R
6HR MIN TEMP:  47; 6HR MAX TEMP:  50; 6HR PCP: TRACE;

GREEN BAY      CLOUDY    48  44  86 W14       29.87R
6HR MIN TEMP:  48; 6HR MAX TEMP:  49; 6HR PCP: TRACE;

MANITOWOC      NOT AVBL
APPLETON       PTSUNNY   46  37  71 W15       29.87R
CLINTONVILLE   CLOUDY    46  41  81 W10       29.87R
OSHKOSH        SUNNY     48  40  73 W9        29.89R
6HR MIN TEMP:  47; 6HR MAX TEMP:  48;

$$

WIZ032>034-041-042-053>061-221300-
SOUTHWEST WISCONSIN

CITY           SKY/WX    TMP DP  RH WIND       PRES   REMARKS
LA CROSSE      PTSUNNY   50  43  77 S12       29.92S
6HR MIN TEMP:  47; 6HR MAX TEMP:  50;

SPARTA         SUNNY     41  40  98 CALM      29.92S
VIROQUA        SUNNY     45  42  91 N7        29.94R
6HR MIN TEMP:  42; 6HR MAX TEMP:  46;

BOSCOBEL       SUNNY     47  43  86 CALM      29.97S
6HR MIN TEMP:  40; 6HR MAX TEMP:  50;

PRAIRIE DU CHI SUNNY     46  41  81 SW7       29.97R
PLATTEVILLE    SUNNY     44  44 100 S6        29.99R
$$

WIZ056-057-062-063-064-067-068-221300-
SOUTH CENTRAL WISCONSIN

CITY           SKY/WX    TMP DP  RH WIND       PRES   REMARKS
REEDSBURG      MOSUNNY   46  43  88 SW5       29.94S
6HR MIN TEMP:  43; 6HR MAX TEMP:  47;

BARABOO/DELLS  MOSUNNY   44  39  85 SW7       29.94R
LONE ROCK      NOT AVBL
MINERAL POINT  SUNNY     45  45 100 W3        29.97R
MADISON        MOSUNNY   47  42  83 W6        29.95S
6HR MIN TEMP:  46; 6HR MAX TEMP:  49;

MIDDLETON      SUNNY     47  42  84 W7        29.96S
WATERTOWN      SUNNY     46  43  88 SW9       29.96R
MONROE         SUNNY     46  41  81 SW12      29.98R
JANESVILLE     SUNNY     48  46  93 SW10      29.98S
$$

WIZ051-052-058>065-066-070>072-221300-
SOUTHEAST WISCONSIN

CITY           SKY/WX    TMP DP  RH WIND       PRES   REMARKS
MILWAUKEE      MOSUNNY   51  42  71 W12G20    29.97R
6HR MIN TEMP:  50; 6HR MAX TEMP:  51;

WAUKESHA       SUNNY     46  39  76 SW12      29.97R
MILWAUKEE/TIMM   N/A     46  37  71 SW12G17   29.96R
RACINE         SUNNY     49  41  74 W9        29.99R
6HR MIN TEMP:  47; 6HR MAX TEMP:  50;

KENOSHA        SUNNY     49  42  77 W12       29.99R
6HR MIN TEMP:  46; 6HR MAX TEMP:  50;

FOND DU LAC    SUNNY     48  39  71 SW16      29.92R
6HR MIN TEMP:  47; 6HR MAX TEMP:  49; 6HR PCP: TRACE;

SHEBOYGAN      MOSUNNY   48  41  76 W15       29.90S
6HR MIN TEMP:  47; 6HR MAX TEMP:  49;

WEST BEND      SUNNY     46  41  81 W9        29.92S
JUNEAU         SUNNY     44  40  87 SW9       29.95R
$$

LSZ147-162-221300-
LAKE SUPERIOR

STATION/POSITION TIME  TEMP    WIND        PRES    WAVE
                       AIR SEA DIR/SP/G            HT/PER
                 (UTC) (F)     (DEG/KT/KT) (MB)    (FT/S)
W MID LAKE BUOY  1050   40 37  250/ 16/ 17 1006.7R   2/ 4
DEVILS ISLAND    1100   44     230/ 21/ 23 1007.5R
PORT WING        1130   47     230/  7/ 12 1008.1S
SAXON HARBOR     1140   47     210/  6/ 11 1008.5R
$$

LMZ867-665-643>646-221300-
LAKE MICHIGAN

STATION/POSITION TIME  TEMP    WIND        PRES    WAVE
                       AIR SEA DIR/SP/G            HT/PER
                 (UTC) (F)     (DEG/KT/KT) (MB)    (FT/S)
CHAMBERS ISLAND  1140   47     220/  8/ 14 1009.1S
N MID LAKE BUOY  1050   41 38  200/ 14/ 16 1009.8R   3/ 5
NORTHPORT PIER   1140   47     240/  7/ 11 1009.5R
KEWAUNEE LAKESHO 1130   49     270/ 13/ 18 1010.6R
SHEBOYGAN LAKESH 1100   50     260/ 14/ 17 1012.5R
PORT WASHINGTON  1130   51     250/ 10/ 15 1014.6R
MILWAUKEE LAKESH 1130   50     260/  9/ 12   N/A
S MID LAKE BUOY  1050   47 44  260/ 12/ 14 1015.2R   2/ 4
KENOSHA   LAKESH 1100   49     250/  8/ 14 1015.2
$$

TC  - TEMPERATURE IN CELSIUS
VSB - VISIBILITY IN STATUTE MILES
WCI - WIND CHILL INDEX
HX  - HEAT INDEX





USA.gov is the U.S. government's official web portal to all federal, state and local government web resources and services.